Regional Weather Roundup
Issued by NWS Upton, NY

Current Version | Previous Version | Text Only | Print | Product List | Glossary Off
Versions: 1 2 3 4 5 6 7 8 9 10 11 12 13 14 15 16 17 18 19 20 21 22 23 24 25 26 27 28 29 30 31 32
000 ASUS41 KOKX 240005 RWROKX Regional Weather Roundup National Weather Service New York NY 700 PM EST FRI FEB 23 2018 Note: "FAIR" indicates few or no clouds below 12,000 feet with no significant weather and/or obstructions to visibility. NYZ071-072-176-178-NJZ106-104-240100- New York City Metro Area CITY SKY/WX TMP DP RH WIND PRES REMARKS Central Park CLOUDY 40 38 93 S8 30.32 WCI 34 Bronx Bot Gard N/A 37 37 100 CALM 30.33S Bronx Lehman C N/A 39 37 93 SE2 N/A LaGuardia Arpt CLOUDY 41 39 93 SE6 30.31F FOG Queens College N/A 39 37 93 SE3 N/A Kennedy Intl CLOUDY 39 39 100 E5 30.33F FOG Breezy Point N/A 37 N/A N/A E3 N/A Brooklyn Coll N/A 39 37 93 SE5 N/A Staten Island N/A 39 37 93 S2 N/A Newark/Liberty DRIZZLE 39 38 96 S5 30.32F FOG Teterboro FOG 40 39 97 VRB3 30.31F VSB 1 $$ NYZ177-179-078>081-240100- Long Island New York CITY SKY/WX TMP DP RH WIND PRES REMARKS Jones Beach N/A 37 N/A N/A E5 N/A WCI 34 Wantagh N/A 39 39 100 NE2 N/A Hempstead N/A 39 37 93 E2 30.34F Matinecock Pt N/A 36 N/A N/A E3 N/A Farmingdale LGT RAIN 39 38 96 CALM 30.32F VSB 1 MacArthur/ISP LGT RAIN 39 39 100 CALM 30.31F VSB 1 Stony Brook U N/A 37 37 100 W1 N/A Shirley LGT RAIN 40 39 97 CALM 30.33S FOG Mt Sinai Harb N/A 37 N/A N/A MISG N/A Westhampton LGT RAIN 39 39 100 E3 30.33F FOG East Hampton LGT RAIN 38 37 99 CALM 30.30F Southold N/A 37 37 100 SE3 N/A Montauk N/A 39 39 100 VRB3 30.31F $$ NYZ052-065-067-240100- Hudson Valley CITY SKY/WX TMP DP RH WIND PRES REMARKS White Plains FOG 36 35 96 SE5 30.28F VSB 1 WCI 32 Larchmont Harb N/A 36 N/A N/A NE7 N/A WCI 30 Croton On Huds N/A 36 N/A N/A S3 N/A Somers N/A 36 34 93 SE3 N/A Brewster N/A 34 34 100 S2 N/A Newburgh DRIZZLE 36 36 100 CALM 30.30F FOG Montgomery CLOUDY 34 33 96 CALM 30.28F Otisville N/A 32 32 100 CALM N/A Warwick N/A 36 36 100 SE1 N/A Suffern N/A 36 36 100 CALM N/A Poughkeepsie CLOUDY 35 34 96 CALM 30.30F FOG Albany CLOUDY 35 31 85 S20G25 30.21F WCI 24 $$ NJZ001-105-106-008-010-013-015-019>022-104-240100- New Jersey CITY SKY/WX TMP DP RH WIND PRES REMARKS Newark/Liberty DRIZZLE 39 38 96 S5 30.32F FOG Teterboro FOG 40 39 97 VRB3 30.31F VSB 1 Caldwell CLOUDY 39 39 100 S3 30.32F FOG Somerville CLOUDY 39 39 100 CALM 30.29F FOG Linden CLOUDY 39 37 92 CALM 30.35F FOG Perth Amboy N/A 39 N/A N/A E6 N/A WCI 35 Sussex CLOUDY 38 37 97 SW3 30.28F FOG Andover N/A 37 37 100 S5 30.29F WCI 33 Trenton CLOUDY 42 40 92 E3 30.30F FOG Millville CLOUDY 45 45 100 CALM 30.32F FOG Atlantic City CLOUDY 44 44 100 CALM 30.33 FOG Wrightstown CLOUDY 42 41 98 E3 30.28 Toms River CLOUDY 41 41 100 CALM 30.33F FOG Belmar CLOUDY 40 39 97 CALM 30.33F FOG $$ PAZ047>061-062-071-240100- Eastern Pennsylvania CITY SKY/WX TMP DP RH WIND PRES REMARKS Philadelphia CLOUDY 43 42 97 CALM 30.32F FOG Allentown CLOUDY 40 38 93 CALM 30.30F FOG Scranton CLOUDY 39 36 89 SW10 30.25S WCI 32 $$ CTZ002-004>006-009-010-012-RIZ004-006-007-MAZ004-011-015-240100- Southern New England In CT CITY SKY/WX TMP DP RH WIND PRES REMARKS Bradley Intl LGT RAIN 36 35 96 SW7 30.30F FOG WCI 30 Hartford LGT RAIN 37 36 96 VRB5 30.30F FOG WCI 33 Danbury CLOUDY 36 34 92 CALM 30.31F Wtrbury/Oxford LGT RAIN 34 33 96 SW3 30.30F VSB 1 Norwalk Harbor N/A 34 N/A N/A E5 N/A WCI 30 Bridgeport LGT RAIN 37 37 100 E3 30.31F FOG Meriden LGT RAIN 36 35 96 S5 30.30F FOG WCI 32 New Haven LGT RAIN 38 36 92 SE5 30.31F FOG WCI 34 Chester LGT RAIN 36 36 100 S3 30.30F Groton LGT RAIN 38 36 92 SE7 30.29F FOG WCI 33 Willimantic RAIN 36 34 92 S5 30.30F FOG WCI 32 In RI CITY SKY/WX TMP DP RH WIND PRES REMARKS Providence LGT RAIN 37 37 100 SE7 30.32F WCI 32 Block Island LGT RAIN 38 38 100 SE8 30.30F WCI 32 Westerly LGT RAIN 38 38 100 SE7 30.30F FOG WCI 33 In MA CITY SKY/WX TMP DP RH WIND PRES REMARKS Boston NOT AVBL Worcester LGT RAIN 32 31 96 S8 30.25F WCI 25 Westfield LGT RAIN 33 33 100 S5 30.28 FOG WCI 29 Provincetown LGT RAIN 36 34 92 S7 30.32F WCI 30 Nantucket CLOUDY 39 39 100 SE15 30.31F WCI 31 $$ ANZ330-335-338-340-345-350-353-355-240100- Coastal Marine Observations STATION/POSITION TIME SKY/WX TEMP WIND PRES VSBY WAVE AIR SEA DIR/SP/G HT/PER (UTC) (F) (DEG/KT/KT) (MB) (MI) (FT/S) NY Harb Entrance 2350 39 39 20/ 4/ 6 1027.3 4/ 7 20 S Fire Island 2350 43 42 90/ 4/ 6 1026.4 4/ 6 23 SSW Montauk P 2350 42 43 140/ 14/ 16 1025.9 4/ 6 15 E Barnegat Li 2330 42 N/A 5/ 7 Hudson Canyon 2350 48 47 110/ 6/ 6 1025.3 5/ 6 Kings Point 2324 37 38 70/ 1/ 3 1028.3 Execution Rocks NOT AVBL Western LI Sound NOT AVBL Central LI Sound 2253 37 100/ 4/ 6 N/A 1 Robbins Reef 2324 39 120/ 3/ 4 1028.3 $$ >>>>>>>>>>>>>>>>>>>>>>>>>>>> KEY <<<<<<<<<<<<<<<<<<<<<<<<<<< > < > SKY/WX - Sky Condition/Present Weather < > TMP - Temperature in Fahrenheit < > DP - Dew Point in Fahrenheit < > RH - Relative Humidity in Percent < > WIND - Direction (from) and Speed in MPH < > PRES - Mean Sea Level Pressure (inches of Hg) < > WCI - Wind Chill Index < > VSB - Visibility in Miles < > HX - Heat Index < > TC - Temperature in Celsius < > VRB - Varibale Wind Direction < > < >>>>>>>>>>>>>>>>>>>>>>>>>>>> KEY <<<<<<<<<<<<<<<<<<<<<<<<<<<

USA.gov is the U.S. government's official web portal to all federal, state and local government web resources and services.